Location: M?digepalle
(16.1753°N, 80.3496°E)
Time: 09:08:12
(UTC+00:00)

Cosmos 2227 Rocket - Pass Details

Date: 29 October 2020
Orbit: 839 x 845 km, 71.0° (Epoch: 27 November)

Event Time Altitude Azimuth Distance (km) Brightness Sun altitude
Rises 13:37:21 0° 344° (NNW) 3,392 5.4 -21.5°
Reaches altitude 10° 13:39:48 10° 344° (NNW) 2,457 4.7 -22.1°
Maximum altitude 13:45:27 87° 72° (ENE) 847 2.1 -23.4°
Drops below altitude 10° 13:51:06 10° 163° (SSE) 2,457 4.5 -24.7°
Sets 13:53:32 0° 164° (SSE) 3,391 5.3 -25.3°
